Flight Information

DEPARTURE
ALBUQUERQUE, NM
Elevation:
5354
Runways:
3/21 - 10000x150 - CONC-G
8/26 - 13793x150 - CONC-G
12/30 - 6000x150 - CONC-G
Active PE Departure:
3 - 8
Current PE ATIS:
L
Altimeter:
30.46
Remarks:
V F R DEPARTURES CONTACT CLEARANCE DELIVERY, ADVISE ON COURSE HEADING, ALTITUDE, AND IF FLIGHT FOLLOWING IS REQUESTED.
ATIS:
118 505-856-4928
Clearance Delivery:
119.2
Ground:
121.9
Tower:
ALBUQUERQUE TOWER 120.3
DESTINATION
,
Elevation:
TPA:
1000 (est.)


6211.8 NM80° True-12° Var68° HDG

Flight Plan:
(click to file on line)

1. Type
2. Aircraft Identification
3. Aircraft Type / Special Equipment
4. True Airspeed
kts
5. Departure Airport
(ICAO code)
6. Arriving Airport
(ICAO code)
7. Cruising Altitude
ft
8. Alternate Airport
(ICAO code)
9. Route of Flight
10. Remarks


00:00:00 Departure ATIS: Destination ATIS:

Clearance Limit:
Route:
Altitude: Expect in minutes
Frequency:
Transponder: (7500 Hijack / 7600 Lost Comms / 7700 Emergency)


KABQ 282252Z 01006KT 10SM CLR 08/M11 A3046 RMK AO2 SLP318 T00781111
Time: 2022-01-28T22:52:00Z
1643411993
Winds: 10 @ 6 kts
Visibility: 10.0 sm
Clouds (AGL): CLR
Temperature: 7.8 C
Dew Point: -11.1 C
Pressure: 30.46063 in Hgbr


Notes:

Data extracted from FAA Digital Chart Supplement. Effective: 0901Z Thursday, DEC 2, 2021 to 0901Z Thursday, JAN 27, 2022
Current ATIS data is provided courtisy of PilotEdge.